VTK225 UNKL-UNBG

Flight info

Callsign VTK225
Flight time 0h 59m
Altitude 32000
Route ROVNO2F ROVNO R823 BAKMI B156 INDIT W916 SUSIR SUSIR1F
Aircraft A319/M-SDE3FGHIRWY/LB1

Departure

Time 2026-04-30 13:08
Airport Krasnoyarsk International Airport (UNKL)

Arrival

Time 2026-04-30 14:08
Airport Gorno-Altaysk Airport (UNBG)
Time Latitude Longitude Altitude Speed Heading
2026-04-30 12:45 56.17864 92.48228 953 ft 0 kts 23°
2026-04-30 13:02 56.17870 92.48233 957 ft 3 kts 23°
2026-04-30 13:03 56.17900 92.48268 955 ft 7 kts 53°
2026-04-30 13:03 56.17896 92.48355 956 ft 8 kts 110°
2026-04-30 13:03 56.17872 92.48455 954 ft 8 kts 129°
2026-04-30 13:03 56.17820 92.48446 956 ft 9 kts 202°
2026-04-30 13:04 56.17756 92.48407 955 ft 10 kts 183°
2026-04-30 13:04 56.17716 92.48505 953 ft 11 kts 112°
2026-04-30 13:04 56.17683 92.48644 956 ft 13 kts 113°
2026-04-30 13:04 56.17646 92.48802 955 ft 15 kts 113°
2026-04-30 13:05 56.17602 92.48984 957 ft 17 kts 113°
2026-04-30 13:05 56.17554 92.49185 955 ft 18 kts 112°
2026-04-30 13:05 56.17504 92.49404 957 ft 20 kts 112°
2026-04-30 13:06 56.17389 92.49886 957 ft 22 kts 113°
2026-04-30 13:06 56.17327 92.50148 955 ft 22 kts 113°
2026-04-30 13:06 56.17278 92.50355 955 ft 13 kts 113°
2026-04-30 13:06 56.17242 92.50421 956 ft 6 kts 182°
2026-04-30 13:07 56.17196 92.50390 954 ft 8 kts 202°
2026-04-30 13:07 56.17131 92.50342 954 ft 12 kts 202°
2026-04-30 13:07 56.17075 92.50298 952 ft 6 kts 216°
2026-04-30 13:07 56.17075 92.50251 952 ft 2 kts 294°
2026-04-30 13:08 56.17140 92.49976 953 ft 62 kts 293°
2026-04-30 13:08 56.17410 92.48839 953 ft 133 kts 293°
2026-04-30 13:08 56.17841 92.47038 1184 ft 166 kts 292°
2026-04-30 13:08 56.18303 92.45144 1996 ft 166 kts 292°
2026-04-30 13:09 56.18772 92.43171 2597 ft 181 kts 292°
2026-04-30 13:09 56.19296 92.40944 3039 ft 205 kts 292°
2026-04-30 13:09 56.19882 92.38439 3582 ft 230 kts 292°
2026-04-30 13:09 56.20535 92.35654 4200 ft 251 kts 292°
2026-04-30 13:10 56.21220 92.32763 5175 ft 257 kts 292°
2026-04-30 13:10 56.21738 92.29674 6191 ft 262 kts 272°
2026-04-30 13:10 56.21280 92.26517 7157 ft 268 kts 239°
2026-04-30 13:10 56.20044 92.23988 8168 ft 273 kts 224°
2026-04-30 13:11 56.18554 92.21823 9165 ft 278 kts 220°
2026-04-30 13:11 56.16995 92.19712 10133 ft 283 kts 221°
2026-04-30 13:11 56.15413 92.17483 10716 ft 300 kts 223°
2026-04-30 13:11 56.13755 92.14982 11146 ft 320 kts 225°
2026-04-30 13:12 56.12070 92.12292 11889 ft 328 kts 226°
2026-04-30 13:12 56.10379 92.09489 12726 ft 333 kts 227°
2026-04-30 13:12 56.08685 92.06618 13567 ft 338 kts 228°
2026-04-30 13:13 56.05242 92.00717 15097 ft 347 kts 229°
2026-04-30 13:13 56.03481 91.97701 15830 ft 352 kts 229°
2026-04-30 13:13 55.99871 91.91578 17203 ft 363 kts 228°
2026-04-30 13:14 55.98022 91.88468 17912 ft 367 kts 228°
2026-04-30 13:14 55.96174 91.85353 18386 ft 372 kts 229°
2026-04-30 13:14 55.92373 91.78950 19906 ft 378 kts 229°
2026-04-30 13:15 55.90447 91.75724 20568 ft 381 kts 229°
2026-04-30 13:15 55.86549 91.69195 21880 ft 388 kts 229°
2026-04-30 13:15 55.84577 91.65880 22529 ft 390 kts 229°
2026-04-30 13:16 55.82594 91.62554 23181 ft 393 kts 229°
2026-04-30 13:16 55.80585 91.59208 23822 ft 396 kts 229°
2026-04-30 13:16 55.78563 91.55848 24327 ft 399 kts 229°
2026-04-30 13:17 55.74497 91.49101 25285 ft 405 kts 229°
2026-04-30 13:17 55.72430 91.45667 25773 ft 408 kts 229°
2026-04-30 13:17 55.68248 91.38741 26711 ft 414 kts 229°
2026-04-30 13:18 55.66128 91.35255 27174 ft 417 kts 229°
2026-04-30 13:18 55.61846 91.28220 28074 ft 423 kts 229°
2026-04-30 13:18 55.59684 91.24669 28517 ft 425 kts 229°
2026-04-30 13:19 55.57499 91.21094 28955 ft 428 kts 229°
2026-04-30 13:19 55.55298 91.17502 29398 ft 431 kts 229°
2026-04-30 13:19 55.53094 91.13884 29811 ft 433 kts 230°
2026-04-30 13:19 55.51159 91.09961 30252 ft 424 kts 239°
2026-04-30 13:20 55.49520 91.05606 30464 ft 428 kts 243°
2026-04-30 13:20 55.47907 91.01166 30750 ft 432 kts 243°
2026-04-30 13:20 55.46273 90.96692 31078 ft 434 kts 243°
2026-04-30 13:20 55.44628 90.92209 31412 ft 437 kts 243°
2026-04-30 13:21 55.42967 90.87698 31735 ft 439 kts 243°
2026-04-30 13:21 55.41294 90.83167 32057 ft 441 kts 243°
2026-04-30 13:21 55.39641 90.78702 32222 ft 440 kts 243°
2026-04-30 13:22 55.36405 90.70037 32241 ft 411 kts 243°
2026-04-30 13:22 55.31767 90.57532 32235 ft 405 kts 243°
2026-04-30 13:23 55.27117 90.45070 32236 ft 407 kts 243°
2026-04-30 13:24 55.20859 90.28449 32237 ft 409 kts 242°
2026-04-30 13:25 55.14593 90.11900 32233 ft 408 kts 242°
2026-04-30 13:26 55.06721 89.91290 32207 ft 409 kts 242°
2026-04-30 13:28 54.98079 89.71410 32207 ft 415 kts 235°
2026-04-30 13:28 54.92459 89.59896 32214 ft 416 kts 235°
2026-04-30 13:29 54.84901 89.44633 32223 ft 416 kts 235°
2026-04-30 13:31 54.75498 89.25603 32229 ft 416 kts 234°
2026-04-30 13:32 54.66019 89.06632 32228 ft 417 kts 234°
2026-04-30 13:33 54.59059 88.92797 32231 ft 417 kts 234°
2026-04-30 13:34 54.53330 88.81477 32233 ft 418 kts 234°
2026-04-30 13:35 54.45980 88.66055 32241 ft 411 kts 245°
2026-04-30 13:36 54.40076 88.49268 32240 ft 412 kts 244°
2026-04-30 13:36 54.35606 88.36681 32228 ft 411 kts 244°
2026-04-30 13:37 54.31130 88.24163 32225 ft 412 kts 243°
2026-04-30 13:38 54.26635 88.11604 32224 ft 412 kts 243°
2026-04-30 13:39 54.20623 87.94912 32207 ft 412 kts 243°
2026-04-30 13:40 54.16101 87.82408 32194 ft 413 kts 243°
2026-04-30 13:40 54.13062 87.74093 32198 ft 413 kts 243°
2026-04-30 13:41 54.10020 87.65776 32196 ft 414 kts 243°
2026-04-30 13:41 54.06982 87.57529 32195 ft 414 kts 243°
2026-04-30 13:42 54.03935 87.49209 32205 ft 414 kts 243°
2026-04-30 13:42 53.99350 87.36759 32188 ft 414 kts 243°
2026-04-30 13:43 53.96282 87.28485 32184 ft 414 kts 242°
2026-04-30 13:43 53.93210 87.20214 32198 ft 414 kts 242°
2026-04-30 13:44 53.90138 87.11946 32214 ft 414 kts 242°
2026-04-30 13:44 53.87037 87.03698 32222 ft 414 kts 242°
2026-04-30 13:45 53.82394 86.91427 32224 ft 416 kts 238°
2026-04-30 13:46 53.78238 86.84502 32210 ft 426 kts 218°
2026-04-30 13:46 53.73304 86.78868 32215 ft 427 kts 218°
2026-04-30 13:47 53.68369 86.73226 31943 ft 429 kts 218°
2026-04-30 13:47 53.65899 86.70391 31685 ft 428 kts 218°
2026-04-30 13:47 53.63466 86.67587 31431 ft 429 kts 218°
2026-04-30 13:47 53.61004 86.64751 31173 ft 429 kts 218°
2026-04-30 13:48 53.58537 86.61912 30923 ft 428 kts 217°
2026-04-30 13:48 53.56071 86.59097 30674 ft 427 kts 217°
2026-04-30 13:48 53.53607 86.56304 30433 ft 425 kts 217°
2026-04-30 13:48 53.51159 86.53528 30165 ft 424 kts 217°
2026-04-30 13:49 53.48721 86.50767 29881 ft 422 kts 217°
2026-04-30 13:49 53.46324 86.48061 29600 ft 420 kts 217°
2026-04-30 13:49 53.43901 86.45325 29313 ft 418 kts 217°
2026-04-30 13:49 53.41494 86.42601 29035 ft 415 kts 217°
2026-04-30 13:50 53.39114 86.39911 28735 ft 411 kts 217°
2026-04-30 13:50 53.34409 86.34587 27828 ft 403 kts 217°
2026-04-30 13:50 53.32117 86.31995 27386 ft 401 kts 217°
2026-04-30 13:51 53.29808 86.29400 26949 ft 398 kts 217°
2026-04-30 13:51 53.27505 86.26827 26513 ft 396 kts 217°
2026-04-30 13:51 53.25224 86.24275 26071 ft 393 kts 217°
2026-04-30 13:51 53.22961 86.21739 25637 ft 391 kts 217°
2026-04-30 13:52 53.20698 86.19217 25202 ft 389 kts 217°
2026-04-30 13:52 53.18475 86.16743 24745 ft 388 kts 217°
2026-04-30 13:52 53.16238 86.14249 24297 ft 386 kts 217°
2026-04-30 13:52 53.13999 86.11755 23821 ft 385 kts 216°
2026-04-30 13:53 53.11772 86.09270 23293 ft 384 kts 217°
2026-04-30 13:53 53.09559 86.06805 22826 ft 380 kts 216°
2026-04-30 13:53 53.07363 86.04374 22361 ft 378 kts 216°
2026-04-30 13:53 53.05205 86.01992 21900 ft 375 kts 216°
2026-04-30 13:54 53.03040 85.99596 21440 ft 373 kts 216°
2026-04-30 13:54 53.00879 85.97234 20986 ft 371 kts 213°
2026-04-30 13:54 52.98534 85.95394 20536 ft 372 kts 201°
2026-04-30 13:54 52.96009 85.94407 20055 ft 373 kts 188°
2026-04-30 13:55 52.93423 85.94103 19605 ft 372 kts 184°
2026-04-30 13:55 52.90842 85.93845 19151 ft 371 kts 185°
2026-04-30 13:55 52.88269 85.93582 18697 ft 370 kts 185°
2026-04-30 13:55 52.85730 85.93320 18221 ft 369 kts 185°
2026-04-30 13:56 52.83173 85.93058 17763 ft 367 kts 185°
2026-04-30 13:56 52.80641 85.92803 17327 ft 364 kts 185°
2026-04-30 13:56 52.78115 85.92549 16886 ft 362 kts 185°
2026-04-30 13:56 52.75605 85.92303 16453 ft 359 kts 184°
2026-04-30 13:57 52.73114 85.92064 16029 ft 357 kts 184°
2026-04-30 13:57 52.70638 85.91821 15606 ft 356 kts 184°
2026-04-30 13:57 52.68179 85.91574 15174 ft 354 kts 184°
2026-04-30 13:57 52.65723 85.91324 14755 ft 352 kts 184°
2026-04-30 13:58 52.63283 85.91077 14333 ft 350 kts 184°
2026-04-30 13:58 52.58431 85.90585 13453 ft 346 kts 184°
2026-04-30 13:58 52.56070 85.90358 13035 ft 343 kts 183°
2026-04-30 13:59 52.53695 85.90610 12605 ft 341 kts 169°
2026-04-30 13:59 52.51413 85.91625 12188 ft 338 kts 163°
2026-04-30 13:59 52.49170 85.92732 11759 ft 335 kts 163°
2026-04-30 13:59 52.46939 85.93826 11332 ft 333 kts 163°
2026-04-30 14:00 52.44721 85.94905 10899 ft 331 kts 163°
2026-04-30 14:00 52.40364 85.97012 10206 ft 322 kts 163°
2026-04-30 14:00 52.38260 85.98035 10084 ft 310 kts 163°
2026-04-30 14:01 52.36221 85.99030 9845 ft 302 kts 163°
2026-04-30 14:01 52.34218 86.00006 9439 ft 298 kts 163°
2026-04-30 14:01 52.32240 86.00968 8945 ft 296 kts 163°
2026-04-30 14:01 52.30267 86.01923 8455 ft 294 kts 163°
2026-04-30 14:02 52.28332 86.02855 7975 ft 291 kts 163°
2026-04-30 14:02 52.26392 86.03768 7465 ft 289 kts 166°
2026-04-30 14:02 52.24400 86.04039 6964 ft 288 kts 184°
2026-04-30 14:02 52.22431 86.03313 6196 ft 292 kts 202°
2026-04-30 14:03 52.20589 86.01895 5490 ft 292 kts 205°
2026-04-30 14:03 52.18806 86.00503 5231 ft 274 kts 204°
2026-04-30 14:03 52.17150 85.99222 5107 ft 254 kts 204°
2026-04-30 14:03 52.15590 85.98018 4986 ft 243 kts 204°
2026-04-30 14:04 52.14092 85.96861 4789 ft 235 kts 204°
2026-04-30 14:04 52.12631 85.95733 4479 ft 229 kts 204°
2026-04-30 14:04 52.11204 85.94632 4144 ft 225 kts 204°
2026-04-30 14:04 52.09811 85.93557 3822 ft 222 kts 204°
2026-04-30 14:05 52.08434 85.92496 3499 ft 216 kts 203°
2026-04-30 14:05 52.07108 85.91474 3194 ft 206 kts 203°
2026-04-30 14:05 52.05845 85.90502 2892 ft 196 kts 202°
2026-04-30 14:05 52.04643 85.89577 2615 ft 185 kts 202°
2026-04-30 14:06 52.03515 85.88710 2361 ft 170 kts 202°
2026-04-30 14:06 52.01557 85.87206 1895 ft 144 kts 204°
2026-04-30 14:07 51.99782 85.85845 1472 ft 137 kts 204°
2026-04-30 14:07 51.98939 85.85201 1259 ft 134 kts 205°
2026-04-30 14:07 51.98102 85.84562 1047 ft 132 kts 205°
2026-04-30 14:08 51.96873 85.83619 959 ft 17 kts 206°
2026-04-30 14:08 51.96799 85.83577 959 ft 6 kts 168°
2026-04-30 14:08 51.96792 85.83693 960 ft 4 kts 86°
2026-04-30 14:09 51.96794 85.83748 957 ft 6 kts 86°
2026-04-30 14:09 51.96795 85.83830 963 ft 8 kts 97°
2026-04-30 14:09 51.96770 85.83980 963 ft 6 kts 58°
2026-04-30 14:10 51.96801 85.84010 959 ft 5 kts 28°
2026-04-30 14:10 51.96832 85.84028 958 ft 4 kts 355°
2026-04-30 14:10 51.96847 85.83995 961 ft 4 kts 296°
2026-04-30 14:10 51.96855 85.83967 960 ft 0 kts 295°